KF5PJP Weather Reports


Display with metric or nautical units.
time (UTC)temp
F
wind
direction
speed
MPH
gust
MPH
rain 1hr
in
rain 24hr
in
rain mn
in
humidity
%
barometer
mb
20260901055932 85 244 0.0 1.0 0.00 0.00 0.00 60 1015.4
20260901055436 85 244 0.0 1.0 0.00 0.00 0.00 60 1015.4
20260901054930 85 258 0.0 1.0 0.00 0.00 0.00 60 1015.3
20260901054426 85 269 0.0 1.0 0.00 0.00 0.00 60 1015.2
20260901053927 85 279 0.0 1.0 0.00 0.00 0.00 60 1015.2
20260901053450 85 279 0.0 1.0 0.00 0.00 0.00 60 1015.0
20260901052929 86 279 0.0 1.0 0.00 0.00 0.00 60 1015.0
20260901052432 86 279 0.0 1.0 0.00 0.00 0.00 60 1015.0
20260901051951 86 275 0.0 1.0 0.00 0.00 0.00 60 1015.0
20260901051442 86 275 0.0 1.0 0.00 0.00 0.00 59 1014.9
20260901050929 86 275 0.0 1.0 0.00 0.00 0.00 59 1014.8
20260901050433 86 275 0.0 1.0 0.00 0.00 0.00 59 1014.9
20260901045930 86 278 0.0 1.0 0.00 0.00 0.00 59 1014.8
20260901045456 86 278 0.0 1.0 0.00 0.00 0.00 59 1014.8
20260901045001 87 279 0.0 0.0 0.00 0.00 0.00 58 1014.8
20260901044505 87 279 0.0 0.0 0.00 0.00 0.00 58 1014.8
20260901043438 87 278 0.0 0.0 0.00 0.00 0.00 57 1014.7
20260901042930 87 280 0.0 0.0 0.00 0.00 0.00 57 1014.7
20260901042512 87 279 0.0 0.0 0.00 0.00 0.00 57 1014.7
20260901042018 87 279 0.0 0.0 0.00 0.00 0.00 57 1014.7
20260901041429 88 266 0.0 0.0 0.00 0.00 0.00 56 1014.8
20260901041002 88 267 0.0 0.0 0.00 0.00 0.00 56 1014.8
20260901035953 88 265 0.0 0.0 0.00 0.00 0.00 56 1014.7
20260901035431 88 283 0.0 0.0 0.00 0.00 0.00 55 1014.7
20260901034438 88 283 0.0 0.0 0.00 0.00 0.00 55 1014.6
20260901033454 89 284 1.0 2.0 0.00 0.00 0.00 55 1014.6
20260901032448 89 290 0.0 1.0 0.00 0.00 0.00 54 1014.6
20260901032018 89 277 0.0 2.0 0.00 0.00 0.00 54 1014.6
20260901030954 89 276 0.0 1.0 0.00 0.00 0.00 54 1014.5
20260901030519 89 275 0.0 1.0 0.00 0.00 0.00 53 1014.5
20260901025434 90 277 0.0 1.0 0.00 0.00 0.00 53 1014.3
20260901025019 90 277 0.0 2.0 0.00 0.00 0.00 52 1014.3
20260901023930 90 286 1.0 3.0 0.00 0.00 0.00 52 1014.2
20260901023456 90 286 1.0 4.0 0.00 0.00 0.00 52 1014.2
20260901023021 90 279 1.0 4.0 0.00 0.00 0.00 51 1014.1
20260901022435 90 277 0.0 2.0 0.00 0.00 0.00 51 1014.0
20260901022001 91 274 0.0 3.0 0.00 0.00 0.00 51 1014.0
20260901020949 91 278 0.0 1.0 0.00 0.00 0.00 50 1013.9
20260901020522 91 278 0.0 1.0 0.00 0.00 0.00 50 1013.8
20260901015937 91 273 0.0 1.0 0.00 0.00 0.00 50 1013.8
20260901015511 91 273 0.0 2.0 0.00 0.00 0.00 49 1013.7
20260901014925 92 277 1.0 2.0 0.00 0.00 0.00 49 1013.6
20260901014500 92 296 1.0 2.0 0.00 0.00 0.00 49 1013.5
20260901013446 92 227 0.0 1.0 0.00 0.00 0.00 48 1013.5
20260901013023 92 280 0.0 1.0 0.00 0.00 0.00 48 1013.5
20260901012444 92 280 0.0 2.0 0.00 0.00 0.00 47 1013.5
20260901011451 93 282 0.0 2.0 0.00 0.00 0.00 46 1013.5
20260901010956 93 281 1.0 2.0 0.00 0.00 0.00 46 1013.5
20260901005955 94 278 0.0 3.0 0.00 0.00 0.00 44 1013.5
20260901004936 94 277 0.0 1.0 0.00 0.00 0.00 43 1013.4
20260901004459 94 282 0.0 2.0 0.00 0.00 0.00 43 1013.4
20260901003451 95 280 1.0 4.0 0.00 0.00 0.00 42 1013.4
20260901003021 95 279 1.0 4.0 0.00 0.00 0.00 42 1013.3
20260901002428 96 277 1.0 3.0 0.00 0.00 0.00 41 1013.2
20260901001456 96 273 2.0 6.0 0.00 0.00 0.00 41 1013.2
20260901000447 97 257 1.0 3.0 0.00 0.00 0.00 40 1013.2
20260831235517 97 275 1.0 2.0 0.00 0.00 0.00 38 1013.0
20260831234925 97 128 1.0 2.0 0.00 0.00 0.00 38 1013.0
20260831234520 97 276 0.0 3.0 0.00 0.00 0.00 38 1013.0
20260831233931 97 285 1.0 3.0 0.00 0.00 0.00 38 1013.1
20260831233505 98 287 1.0 3.0 0.00 0.00 0.00 38 1013.0
20260831232439 98 261 0.0 2.0 0.00 0.00 0.00 37 1013.0
20260831231454 99 237 0.0 3.0 0.00 0.00 0.00 36 1013.0
20260831230503 99 244 1.0 3.0 0.00 0.00 0.00 35 1013.1
20260831230013 99 279 1.0 3.0 0.00 0.00 0.00 36 1013.1
20260831224949 99 270 1.0 3.0 0.00 0.00 0.00 36 1013.1
20260831224003 100 244 2.0 3.0 0.00 0.00 0.00 35 1013.2
20260831222950 101 278 0.0 3.0 0.00 0.00 0.00 35 1013.2
20260831221955 100 271 1.0 4.0 0.00 0.00 0.00 35 1013.3
20260831221053 100 281 1.0 4.0 0.00 0.00 0.00 35 1013.3
20260831220436 101 302 1.0 5.0 0.00 0.00 0.00 34 1013.4
20260831220014 101 245 0.0 4.0 0.00 0.00 0.00 34 1013.3
20260831215454 101 275 1.0 3.0 0.00 0.00 0.00 34 1013.3
20260831214451 101 292 1.0 4.0 0.00 0.00 0.00 34 1013.5
20260831213438 102 266 1.0 4.0 0.00 0.00 0.00 34 1013.4
20260831212443 102 283 0.0 2.0 0.00 0.00 0.00 33 1013.6
20260831212011 102 291 0.0 3.0 0.00 0.00 0.00 34 1013.5
20260831211429 102 284 1.0 3.0 0.00 0.00 0.00 33 1013.6
20260831211012 102 281 0.0 4.0 0.00 0.00 0.00 34 1013.7
20260831210434 102 272 2.0 4.0 0.00 0.00 0.00 33 1013.7
20260831210001 103 240 1.0 3.0 0.00 0.00 0.00 30 1013.8
20260831205430 102 294 1.0 4.0 0.00 0.00 0.00 32 1014.0
20260831205017 102 272 2.0 4.0 0.00 0.00 0.00 31 1014.0
20260831204435 103 265 1.0 3.0 0.00 0.00 0.00 34 1014.2
20260831203446 102 279 2.0 4.0 0.00 0.00 0.00 35 1014.4
20260831203029 102 258 1.0 4.0 0.00 0.00 0.00 35 1014.5
20260831201449 101 282 2.0 3.0 0.00 0.00 0.00 34 1014.7
20260831200441 101 243 1.0 3.0 0.00 0.00 0.00 38 1014.9
20260831195459 100 242 2.0 4.0 0.00 0.00 0.00 37 1014.9
20260831195013 101 306 2.0 4.0 0.00 0.00 0.00 36 1014.9
20260831193955 100 271 1.0 5.0 0.00 0.00 0.00 37 1015.0
20260831193423 100 283 1.0 4.0 0.00 0.00 0.00 37 1015.1
20260831193009 100 254 2.0 4.0 0.00 0.00 0.00 38 1015.2
20260831192434 100 277 1.0 4.0 0.00 0.00 0.00 38 1015.2
20260831191435 100 275 1.0 4.0 0.00 0.00 0.00 38 1015.3
20260831190457 99 281 1.0 6.0 0.00 0.00 0.00 40 1015.6
20260831185938 99 277 2.0 6.0 0.00 0.00 0.00 39 1015.6
20260831184943 100 161 1.0 3.0 0.00 0.00 0.00 39 1015.8
20260831184003 99 253 1.0 3.0 0.00 0.00 0.00 40 1015.8
20260831183437 99 265 1.0 2.0 0.00 0.00 0.00 41 1015.8
20260831182447 98 271 1.0 4.0 0.00 0.00 0.00 42 1015.9
20260831181441 98 231 1.0 3.0 0.00 0.00 0.00 42 1016.1
20260831180454 97 283 1.0 3.0 0.00 0.00 0.00 42 1016.2
20260831175451 97 284 1.0 3.0 0.00 0.00 0.00 43 1016.2
20260831174927 96 248 1.0 3.0 0.00 0.00 0.00 45 1016.4
20260831173940 96 271 0.0 4.0 0.00 0.00 0.00 45 1016.5
20260831172956 97 205 1.0 5.0 0.00 0.00 0.00 44 1016.7
20260831171955 97 296 2.0 3.0 0.00 0.00 0.00 44 1016.8
20260831171515 98 276 0.0 2.0 0.00 0.00 0.00 43 1017.0
20260831170954 98 242 1.0 2.0 0.00 0.00 0.00 43 1017.0
20260831165951 98 164 0.0 3.0 0.00 0.00 0.00 43 1017.2
20260831164444 96 288 0.0 3.0 0.00 0.00 0.00 46 1017.4
20260831163950 95 289 1.0 3.0 0.00 0.00 0.00 46 1017.3
20260831162941 94 265 1.0 3.0 0.00 0.00 0.00 47 1017.3
20260831161942 95 31 0.0 3.0 0.00 0.00 0.00 47 1017.4
20260831161517 95 123 0.0 2.0 0.00 0.00 0.00 47 1017.5
20260831160933 95 39 0.0 3.0 0.00 0.00 0.00 49 1017.4
20260831160432 95 105 0.0 1.0 0.00 0.00 0.00 50 1017.4
20260831160006 93 83 0.0 2.0 0.00 0.00 0.00 52 1017.4
20260831155423 92 84 0.0 3.0 0.00 0.00 0.00 51 1017.4
20260831154954 93 256 1.0 3.0 0.00 0.00 0.00 52 1017.4
20260831153940 91 279 0.0 2.0 0.00 0.00 0.00 55 1017.4
20260831153518 91 284 0.0 1.0 0.00 0.00 0.00 57 1017.3
20260831153030 90 288 0.0 1.0 0.00 0.00 0.00 59 1017.3
20260831152010 88 126 1.0 2.0 0.00 0.00 0.00 61 1017.3
20260831151437 87 227 0.0 0.0 0.00 0.00 0.00 64 1017.2
20260831150432 86 311 0.0 2.0 0.00 0.00 0.00 67 1017.1
20260831150009 85 81 1.0 1.0 0.00 0.00 0.00 67 1017.1
20260831145425 85 270 0.0 0.0 0.00 0.00 0.00 69 1017.1
20260831144446 84 287 0.0 1.0 0.00 0.00 0.00 72 1017.2
20260831143502 83 133 0.0 0.0 0.00 0.00 0.00 73 1017.2
20260831142452 82 134 0.0 1.0 0.00 0.00 0.00 74 1017.1
20260831141441 82 99 0.0 2.0 0.00 0.00 0.00 75 1017.0
20260831140954 82 99 0.0 2.0 0.00 0.00 0.00 75 1017.0
20260831140500 81 266 0.0 1.0 0.00 0.00 0.00 75 1017.0
20260831135453 81 280 0.0 1.0 0.00 0.00 0.00 75 1016.9
20260831134447 81 45 0.0 0.0 0.00 0.00 0.00 76 1017.0
20260831133445 80 51 0.0 1.0 0.00 0.00 0.00 77 1016.8
20260831133017 80 52 0.0 0.0 0.00 0.00 0.00 77 1016.8
20260831132438 79 52 0.0 2.0 0.00 0.00 0.00 78 1016.8
20260831131454 78 255 0.0 0.0 0.00 0.00 0.00 79 1016.6
20260831131034 78 255 0.0 0.0 0.00 0.00 0.00 79 1016.4
20260831130437 77 255 0.0 0.0 0.00 0.00 0.00 79 1016.3
20260831125445 77 255 0.0 0.0 0.00 0.00 0.00 80 1016.3
20260831124449 77 255 0.0 0.0 0.00 0.00 0.00 80 1016.1
20260831123441 76 255 0.0 0.0 0.00 0.00 0.00 80 1015.9
20260831123016 76 255 0.0 0.0 0.00 0.00 0.00 80 1015.9
20260831122428 76 255 0.0 0.0 0.00 0.00 0.00 80 1015.8
20260831121504 76 255 0.0 0.0 0.00 0.00 0.00 80 1015.6
20260831120447 76 255 0.0 0.0 0.00 0.00 0.00 79 1015.6
20260831115500 76 255 0.0 0.0 0.00 0.00 0.00 78 1015.4
20260831114440 76 255 0.0 0.0 0.00 0.00 0.00 78 1015.3
20260831113443 76 255 0.0 0.0 0.00 0.00 0.00 78 1015.2
20260831112949 76 255 0.0 1.0 0.00 0.00 0.00 78 1015.2
20260831111932 76 255 0.0 1.0 0.00 0.00 0.00 78 1015.2
20260831110934 76 255 0.0 0.0 0.00 0.00 0.00 77 1015.3
20260831105949 76 255 0.0 0.0 0.00 0.00 0.00 76 1015.2
20260831104947 76 255 0.0 0.0 0.00 0.00 0.00 76 1015.2
20260831103433 77 255 0.0 0.0 0.00 0.00 0.00 75 1015.3
20260831102500 77 255 0.0 0.0 0.00 0.00 0.00 74 1015.2
20260831101449 78 255 0.0 0.0 0.00 0.00 0.00 73 1015.2
20260831100431 78 255 0.0 0.0 0.00 0.00 0.00 73 1015.2
20260831100002 78 255 0.0 0.0 0.00 0.00 0.00 73 1015.0
20260831094931 78 255 0.0 0.0 0.00 0.00 0.00 72 1015.0
20260831094439 78 255 0.0 0.0 0.00 0.00 0.00 71 1015.1
20260831094019 78 255 0.0 0.0 0.00 0.00 0.00 71 1015.1
20260831093423 79 255 0.0 0.0 0.00 0.00 0.00 71 1015.1
20260831093005 79 255 0.0 0.0 0.00 0.00 0.00 70 1014.9
20260831092443 79 255 0.0 0.0 0.00 0.00 0.00 70 1015.0
20260831092022 79 255 0.0 0.0 0.00 0.00 0.00 69 1015.0
20260831091540 79 255 0.0 0.0 0.00 0.00 0.00 69 1014.9
20260831090945 80 255 0.0 0.0 0.00 0.00 0.00 68 1014.9
20260831090517 80 255 0.0 0.0 0.00 0.00 0.00 68 1014.9
20260831085923 80 255 0.0 1.0 0.00 0.00 0.00 68 1014.9
20260831085514 80 255 0.0 1.0 0.00 0.00 0.00 68 1014.9
20260831084933 80 255 0.0 0.0 0.00 0.00 0.00 68 1014.9
20260831084418 80 255 0.0 0.0 0.00 0.00 0.00 68 1014.9
20260831084001 80 255 0.0 1.0 0.00 0.00 0.00 67 1014.8
20260831082941 80 255 0.0 0.0 0.00 0.00 0.00 66 1014.8
20260831081932 80 256 0.0 0.0 0.00 0.00 0.00 66 1014.8
20260831080929 81 256 0.0 0.0 0.00 0.00 0.00 65 1014.8
20260831075947 81 256 0.0 0.0 0.00 0.00 0.00 64 1014.8
20260831074954 81 256 0.0 1.0 0.00 0.00 0.00 64 1014.8
20260831074508 81 256 0.0 1.0 0.00 0.00 0.00 63 1014.8
20260831073921 82 255 0.0 0.0 0.00 0.00 0.00 63 1014.8
20260831073505 82 255 0.0 1.0 0.00 0.00 0.00 63 1014.8
20260831072941 82 255 0.0 1.0 0.00 0.00 0.00 63 1014.7
20260831071953 82 255 0.0 0.0 0.00 0.00 0.00 62 1014.7
20260831070954 82 254 0.0 1.0 0.00 0.00 0.00 62 1014.7
20260831070516 83 259 0.0 3.0 0.00 0.00 0.00 61 1014.8
20260831065945 83 259 0.0 3.0 0.00 0.00 0.00 61 1014.8
20260831065445 83 263 0.0 1.0 0.00 0.00 0.00 61 1014.8
20260831064927 83 263 0.0 1.0 0.00 0.00 0.00 61 1014.9
20260831064432 83 263 0.0 1.0 0.00 0.00 0.00 60 1014.8
20260831063925 83 247 0.0 1.0 0.00 0.00 0.00 60 1014.9
20260831063449 83 247 0.0 1.0 0.00 0.00 0.00 59 1014.9
20260831062946 84 247 0.0 1.0 0.00 0.00 0.00 59 1014.9
20260831062431 84 247 0.0 1.0 0.00 0.00 0.00 59 1015.0
20260831061935 84 256 0.0 1.0 0.00 0.00 0.00 58 1015.0
20260831061452 84 262 0.0 0.0 0.00 0.00 0.00 58 1014.9
20260831060934 84 262 0.0 0.0 0.00 0.00 0.00 57 1014.9
20260831060421 84 263 0.0 0.0 0.00 0.00 0.00 57 1014.9